| time (UTC) | temp F | wind direction | speed MPH | gust MPH | rain 1hr in | rain 24hr in | rain mn in | humidity % | barometer mb |
| 20260902125926 | 78 | 136 | 2.0 | 2.0 | 0.00 | 0.00 | 0.00 | 86 | 1012.1 |
| 20260902125422 | 77 | 135 | 0.0 | 1.0 | 0.00 | 0.00 | 0.00 | 86 | 1012.2 |
| 20260902124918 | 77 | 136 | 0.0 | 1.0 | 0.00 | 0.00 | 0.00 | 87 | 1012.1 |
| 20260902124414 | 77 | 133 | 1.0 | 2.0 | 0.00 | 0.00 | 0.00 | 87 | 1011.8 |
| 20260902123908 | 77 | 135 | 1.0 | 2.0 | 0.00 | 0.00 | 0.00 | 87 | 1012.2 |
| 20260902123404 | 77 | 137 | 0.0 | 1.0 | 0.00 | 0.00 | 0.00 | 87 | 1011.9 |
| 20260902122902 | 77 | 136 | 0.0 | 1.0 | 0.00 | 0.00 | 0.00 | 87 | 1011.8 |
| 20260902122359 | 76 | 136 | 0.0 | 0.0 | 0.00 | 0.00 | 0.00 | 88 | 1011.8 |
| 20260902121854 | 76 | 138 | 0.0 | 0.0 | 0.00 | 0.00 | 0.00 | 89 | 1011.7 |
| 20260902121349 | 76 | 138 | 0.0 | 0.0 | 0.00 | 0.00 | 0.00 | 89 | 1011.8 |
| 20260902120844 | 76 | 138 | 0.0 | 0.0 | 0.00 | 0.00 | 0.00 | 89 | 1011.7 |
| 20260902120340 | 75 | 138 | 0.0 | 0.0 | 0.00 | 0.00 | 0.00 | 89 | 1011.5 |
| 20260902115834 | 76 | 139 | 0.0 | 0.0 | 0.00 | 0.00 | 0.00 | 89 | 1011.5 |
| 20260902115331 | 76 | 138 | 0.0 | 0.0 | 0.00 | 0.00 | 0.00 | 89 | 1011.7 |
| 20260902114827 | 76 | 137 | 0.0 | 0.0 | 0.00 | 0.00 | 0.00 | 88 | 1011.8 |
| 20260902114323 | 76 | 136 | 0.0 | 1.0 | 0.00 | 0.00 | 0.00 | 88 | 1011.6 |
| 20260902113823 | 76 | 137 | 0.0 | 1.0 | 0.00 | 0.00 | 0.00 | 88 | 1011.4 |
| 20260902113318 | 76 | 136 | 0.0 | 0.0 | 0.00 | 0.00 | 0.00 | 88 | 1011.7 |
| 20260902112818 | 76 | 134 | 0.0 | 1.0 | 0.00 | 0.00 | 0.00 | 88 | 1011.5 |
| 20260902112315 | 76 | 135 | 1.0 | 2.0 | 0.00 | 0.00 | 0.00 | 88 | 1011.6 |
| 20260902111809 | 76 | 136 | 1.0 | 2.0 | 0.00 | 0.00 | 0.00 | 88 | 1011.6 |
| 20260902111306 | 76 | 133 | 1.0 | 2.0 | 0.00 | 0.00 | 0.00 | 88 | 1011.7 |
| 20260902110801 | 76 | 135 | 1.0 | 2.0 | 0.00 | 0.00 | 0.00 | 88 | 1011.5 |
| 20260902110257 | 76 | 136 | 0.0 | 2.0 | 0.00 | 0.00 | 0.00 | 88 | 1011.8 |
| 20260902105757 | 76 | 135 | 0.0 | 1.0 | 0.00 | 0.00 | 0.00 | 88 | 1011.7 |
| 20260902105252 | 76 | 136 | 0.0 | 2.0 | 0.00 | 0.00 | 0.00 | 88 | 1011.9 |
| 20260902104747 | 76 | 139 | 1.0 | 1.0 | 0.00 | 0.00 | 0.00 | 89 | 1011.9 |
| 20260902104243 | 76 | 136 | 0.0 | 1.0 | 0.00 | 0.00 | 0.00 | 88 | 1012.1 |
| 20260902103743 | 76 | 135 | 0.0 | 1.0 | 0.00 | 0.00 | 0.00 | 88 | 1011.7 |
| 20260902103237 | 76 | 136 | 0.0 | 0.0 | 0.00 | 0.00 | 0.00 | 87 | 1011.8 |
| 20260902102733 | 76 | 136 | 0.0 | 0.0 | 0.00 | 0.00 | 0.00 | 87 | 1011.7 |
| 20260902102230 | 76 | 136 | 0.0 | 1.0 | 0.00 | 0.00 | 0.00 | 87 | 1011.5 |
| 20260902101720 | 76 | 136 | 1.0 | 2.0 | 0.00 | 0.00 | 0.00 | 88 | 1011.7 |
| 20260902101214 | 76 | 136 | 1.0 | 1.0 | 0.00 | 0.00 | 0.00 | 88 | 1011.7 |
| 20260902100713 | 76 | 135 | 0.0 | 1.0 | 0.00 | 0.00 | 0.00 | 88 | 1011.9 |
| 20260902100209 | 76 | 136 | 0.0 | 0.0 | 0.00 | 0.00 | 0.00 | 88 | 1011.6 |
| 20260902095708 | 76 | 136 | 0.0 | 0.0 | 0.00 | 0.00 | 0.00 | 88 | 1011.6 |
| 20260902095202 | 76 | 136 | 0.0 | 0.0 | 0.00 | 0.00 | 0.00 | 88 | 1011.7 |
| 20260902094657 | 77 | 136 | 0.0 | 0.0 | 0.00 | 0.00 | 0.00 | 87 | 1011.6 |
| 20260902094153 | 77 | 135 | 0.0 | 0.0 | 0.00 | 0.00 | 0.00 | 87 | 1011.7 |
| 20260902093652 | 77 | 135 | 0.0 | 1.0 | 0.00 | 0.00 | 0.00 | 87 | 1011.8 |
| 20260902093148 | 77 | 136 | 0.0 | 1.0 | 0.00 | 0.00 | 0.00 | 87 | 1011.6 |
| 20260902092643 | 77 | 136 | 0.0 | 1.0 | 0.00 | 0.00 | 0.00 | 87 | 1011.6 |
| 20260902092137 | 77 | 135 | 1.0 | 1.0 | 0.00 | 0.00 | 0.00 | 87 | 1011.7 |
| 20260902091632 | 77 | 135 | 1.0 | 2.0 | 0.00 | 0.00 | 0.00 | 87 | 1011.4 |
| 20260902091128 | 76 | 135 | 0.0 | 0.0 | 0.00 | 0.00 | 0.00 | 89 | 1011.4 |
| 20260902090624 | 76 | 137 | 0.0 | 0.0 | 0.00 | 0.00 | 0.00 | 90 | 1011.4 |
| 20260902090123 | 75 | 134 | 0.0 | 0.0 | 0.00 | 0.00 | 0.00 | 91 | 1011.3 |
| 20260902085618 | 75 | 139 | 0.0 | 0.0 | 0.00 | 0.00 | 0.00 | 92 | 1011.4 |
| 20260902085113 | 75 | 138 | 0.0 | 0.0 | 0.00 | 0.00 | 0.00 | 92 | 1011.2 |
| 20260902084609 | 75 | 140 | 0.0 | 0.0 | 0.00 | 0.00 | 0.00 | 94 | 1011.4 |
| 20260902084105 | 75 | 138 | 0.0 | 0.0 | 0.00 | 0.00 | 0.00 | 94 | 1011.4 |
| 20260902083559 | 75 | 137 | 0.0 | 0.0 | 0.00 | 0.00 | 0.00 | 94 | 1011.5 |
| 20260902083054 | 75 | 136 | 0.0 | 0.0 | 0.00 | 0.00 | 0.00 | 94 | 1011.3 |
| 20260902082549 | 75 | 137 | 0.0 | 0.0 | 0.00 | 0.00 | 0.00 | 94 | 1011.1 |
| 20260902082046 | 75 | 138 | 0.0 | 0.0 | 0.00 | 0.00 | 0.00 | 93 | 1011.4 |
| 20260902081543 | 75 | 137 | 0.0 | 0.0 | 0.00 | 0.00 | 0.00 | 93 | 1011.2 |
| 20260902081042 | 75 | 138 | 0.0 | 0.0 | 0.00 | 0.00 | 0.00 | 93 | 1011.3 |
| 20260902080537 | 75 | 139 | 0.0 | 0.0 | 0.00 | 0.00 | 0.00 | 93 | 1011.4 |
| 20260902080034 | 76 | 138 | 0.0 | 0.0 | 0.00 | 0.00 | 0.00 | 92 | 1011.3 |
| 20260902075533 | 76 | 138 | 0.0 | 0.0 | 0.00 | 0.00 | 0.00 | 92 | 1011.3 |
| 20260902075030 | 76 | 139 | 0.0 | 0.0 | 0.00 | 0.00 | 0.00 | 91 | 1011.4 |
| 20260902074524 | 77 | 137 | 0.0 | 0.0 | 0.00 | 0.00 | 0.00 | 91 | 1011.3 |
| 20260902074019 | 77 | 137 | 0.0 | 0.0 | 0.00 | 0.00 | 0.00 | 90 | 1011.4 |
| 20260902073514 | 77 | 137 | 0.0 | 0.0 | 0.00 | 0.00 | 0.00 | 89 | 1011.3 |
| 20260902073011 | 77 | 138 | 0.0 | 0.0 | 0.00 | 0.00 | 0.00 | 89 | 1011.1 |
| 20260902072501 | 78 | 138 | 0.0 | 0.0 | 0.00 | 0.00 | 0.00 | 88 | 1011.1 |
| 20260902071957 | 78 | 136 | 0.0 | 0.0 | 0.00 | 0.00 | 0.00 | 87 | 1011.1 |
| 20260902071456 | 78 | 136 | 0.0 | 0.0 | 0.00 | 0.00 | 0.00 | 87 | 1011.1 |
| 20260902070953 | 79 | 137 | 0.0 | 0.0 | 0.00 | 0.00 | 0.00 | 86 | 1011.0 |
| 20260902070449 | 79 | 136 | 0.0 | 1.0 | 0.00 | 0.00 | 0.00 | 86 | 1011.1 |
| 20260902065947 | 79 | 137 | 1.0 | 1.0 | 0.00 | 0.00 | 0.00 | 86 | 1011.1 |
| 20260902065442 | 79 | 134 | 1.0 | 2.0 | 0.00 | 0.00 | 0.00 | 86 | 1010.9 |
| 20260902064937 | 79 | 135 | 1.0 | 1.0 | 0.00 | 0.00 | 0.00 | 86 | 1011.1 |
| 20260902064433 | 79 | 134 | 1.0 | 3.0 | 0.00 | 0.00 | 0.00 | 86 | 1011.6 |
| 20260902063929 | 79 | 136 | 1.0 | 2.0 | 0.00 | 0.00 | 0.00 | 86 | 1011.4 |
| 20260902063428 | 79 | 133 | 0.0 | 3.0 | 0.00 | 0.00 | 0.00 | 86 | 1011.5 |
| 20260902062924 | 79 | 136 | 2.0 | 3.0 | 0.00 | 0.00 | 0.00 | 86 | 1011.6 |
| 20260902062422 | 79 | 135 | 1.0 | 1.0 | 0.00 | 0.00 | 0.00 | 85 | 1011.3 |
| 20260902061917 | 79 | 134 | 0.0 | 1.0 | 0.00 | 0.00 | 0.00 | 85 | 1011.4 |
| 20260902061413 | 79 | 129 | 2.0 | 2.0 | 0.00 | 0.00 | 0.00 | 85 | 1011.3 |
| 20260902060909 | 79 | 135 | 1.0 | 2.0 | 0.00 | 0.00 | 0.00 | 86 | 1011.2 |
| 20260902060404 | 79 | 135 | 1.0 | 1.0 | 0.00 | 0.00 | 0.00 | 86 | 1011.4 |
| 20260902055900 | 79 | 134 | 0.0 | 1.0 | 0.00 | 0.00 | 0.00 | 86 | 1011.1 |
| 20260902055356 | 79 | 134 | 1.0 | 3.0 | 0.00 | 0.00 | 0.00 | 86 | 1011.1 |
| 20260902054851 | 79 | 133 | 1.0 | 1.0 | 0.00 | 0.00 | 0.00 | 87 | 1011.0 |
| 20260902054347 | 79 | 135 | 1.0 | 2.0 | 0.00 | 0.00 | 0.00 | 87 | 1011.1 |
| 20260902053842 | 79 | 133 | 1.0 | 2.0 | 0.00 | 0.00 | 0.00 | 87 | 1011.1 |
| 20260902053337 | 79 | 133 | 1.0 | 1.0 | 0.00 | 0.00 | 0.00 | 87 | 1011.2 |
| 20260902052836 | 79 | 135 | 1.0 | 2.0 | 0.00 | 0.00 | 0.00 | 86 | 1011.5 |
| 20260902052331 | 79 | 136 | 1.0 | 2.0 | 0.00 | 0.00 | 0.00 | 86 | 1011.3 |
| 20260902051831 | 80 | 133 | 2.0 | 2.0 | 0.00 | 0.00 | 0.00 | 86 | 1011.4 |
| 20260902051326 | 80 | 135 | 2.0 | 2.0 | 0.00 | 0.00 | 0.00 | 85 | 1011.4 |
| 20260902050826 | 80 | 136 | 1.0 | 2.0 | 0.00 | 0.00 | 0.00 | 85 | 1011.3 |
| 20260902050326 | 80 | 137 | 1.0 | 2.0 | 0.00 | 0.00 | 0.00 | 85 | 1011.3 |
| 20260902045821 | 80 | 138 | 1.0 | 2.0 | 0.00 | 0.00 | 0.00 | 85 | 1011.3 |
| 20260902045317 | 81 | 135 | 0.0 | 1.0 | 0.00 | 0.00 | 0.00 | 85 | 1011.4 |
| 20260902044813 | 81 | 135 | 1.0 | 3.0 | 0.00 | 0.00 | 0.00 | 84 | 1011.3 |
| 20260902044308 | 81 | 136 | 1.0 | 2.0 | 0.00 | 0.00 | 0.00 | 84 | 1011.2 |
| 20260902043802 | 81 | 137 | 1.0 | 1.0 | 0.00 | 0.00 | 0.00 | 84 | 1011.2 |
| 20260902043258 | 81 | 137 | 0.0 | 2.0 | 0.00 | 0.00 | 0.00 | 84 | 1011.4 |
| 20260902042757 | 82 | 136 | 0.0 | 2.0 | 0.00 | 0.00 | 0.00 | 84 | 1011.4 |
| 20260902042252 | 82 | 137 | 2.0 | 2.0 | 0.00 | 0.00 | 0.00 | 84 | 1011.4 |
| 20260902041748 | 82 | 137 | 0.0 | 3.0 | 0.00 | 0.00 | 0.00 | 83 | 1011.2 |
| 20260902041247 | 82 | 167 | 1.0 | 2.0 | 0.00 | 0.00 | 0.00 | 83 | 1011.2 |
| 20260902040746 | 82 | 162 | 0.0 | 2.0 | 0.00 | 0.00 | 0.00 | 82 | 1011.5 |
| 20260902040242 | 82 | 185 | 1.0 | 2.0 | 0.00 | 0.00 | 0.00 | 82 | 1011.3 |
| 20260902035740 | 82 | 176 | 1.0 | 2.0 | 0.00 | 0.00 | 0.00 | 82 | 1011.6 |
| 20260902035236 | 82 | 174 | 1.0 | 1.0 | 0.00 | 0.00 | 0.00 | 81 | 1011.4 |
| 20260902034734 | 82 | 171 | 1.0 | 1.0 | 0.00 | 0.00 | 0.00 | 81 | 1011.4 |
| 20260902034230 | 83 | 172 | 0.0 | 2.0 | 0.00 | 0.00 | 0.00 | 80 | 1011.6 |
| 20260902033728 | 83 | 174 | 1.0 | 2.0 | 0.00 | 0.00 | 0.00 | 80 | 1011.4 |
| 20260902033223 | 83 | 220 | 3.0 | 6.0 | 0.00 | 0.00 | 0.00 | 80 | 1011.4 |
| 20260902032722 | 83 | 232 | 3.0 | 3.0 | 0.00 | 0.00 | 0.00 | 79 | 1011.5 |
| 20260902032217 | 83 | 164 | 1.0 | 2.0 | 0.00 | 0.00 | 0.00 | 79 | 1011.6 |
| 20260902031717 | 83 | 281 | 1.0 | 2.0 | 0.00 | 0.00 | 0.00 | 79 | 1011.4 |
| 20260902031212 | 83 | 172 | 0.0 | 3.0 | 0.00 | 0.00 | 0.00 | 79 | 1011.5 |
| 20260902030709 | 83 | 257 | 3.0 | 3.0 | 0.00 | 0.00 | 0.00 | 78 | 1011.6 |
| 20260902030208 | 83 | 162 | 0.0 | 1.0 | 0.00 | 0.00 | 0.00 | 78 | 1011.5 |
| 20260902025707 | 84 | 175 | 1.0 | 3.0 | 0.00 | 0.00 | 0.00 | 77 | 1011.5 |
| 20260902025203 | 84 | 164 | 2.0 | 3.0 | 0.00 | 0.00 | 0.00 | 76 | 1011.3 |
| 20260902024658 | 84 | 145 | 2.0 | 5.0 | 0.00 | 0.00 | 0.00 | 76 | 1011.2 |
| 20260902024153 | 85 | 164 | 2.0 | 3.0 | 0.00 | 0.00 | 0.00 | 76 | 1011.4 |
| 20260902023648 | 85 | 201 | 2.0 | 5.0 | 0.00 | 0.00 | 0.00 | 75 | 1011.4 |
| 20260902023143 | 85 | 199 | 3.0 | 6.0 | 0.00 | 0.00 | 0.00 | 76 | 1011.6 |
| 20260902022643 | 85 | 69 | 2.0 | 5.0 | 0.00 | 0.00 | 0.00 | 76 | 1011.5 |
| 20260902022139 | 85 | 224 | 3.0 | 6.0 | 0.00 | 0.00 | 0.00 | 76 | 1011.3 |
| 20260902021634 | 85 | 167 | 1.0 | 7.0 | 0.00 | 0.00 | 0.00 | 76 | 1011.2 |
| 20260902021129 | 85 | 262 | 3.0 | 5.0 | 0.00 | 0.00 | 0.00 | 76 | 1011.6 |
| 20260902020625 | 85 | 169 | 2.0 | 3.0 | 0.00 | 0.00 | 0.00 | 76 | 1011.3 |
| 20260902020120 | 85 | 237 | 2.0 | 3.0 | 0.00 | 0.00 | 0.00 | 77 | 1011.3 |
| 20260902015616 | 85 | 163 | 1.0 | 3.0 | 0.00 | 0.00 | 0.00 | 76 | 1011.2 |
| 20260902015112 | 86 | 161 | 3.0 | 3.0 | 0.00 | 0.00 | 0.00 | 76 | 1011.1 |
| 20260902014608 | 86 | 162 | 1.0 | 3.0 | 0.00 | 0.00 | 0.00 | 75 | 1011.1 |
| 20260902014103 | 86 | 240 | 2.0 | 3.0 | 0.00 | 0.00 | 0.00 | 75 | 1011.1 |
| 20260902013602 | 86 | 253 | 3.0 | 5.0 | 0.00 | 0.00 | 0.00 | 75 | 1011.0 |
| 20260902013058 | 86 | 174 | 2.0 | 7.0 | 0.00 | 0.00 | 0.00 | 75 | 1011.0 |
| 20260902012553 | 86 | 151 | 1.0 | 7.0 | 0.00 | 0.00 | 0.00 | 76 | 1010.8 |
| 20260902012048 | 86 | 287 | 2.0 | 3.0 | 0.00 | 0.00 | 0.00 | 76 | 1010.8 |
| 20260902011544 | 86 | 241 | 2.0 | 3.0 | 0.00 | 0.00 | 0.00 | 75 | 1010.6 |
| 20260902011043 | 86 | 173 | 3.0 | 5.0 | 0.00 | 0.00 | 0.00 | 75 | 1010.7 |
| 20260902010543 | 86 | 173 | 1.0 | 3.0 | 0.00 | 0.00 | 0.00 | 76 | 1010.7 |
| 20260902010039 | 87 | 188 | 1.0 | 3.0 | 0.00 | 0.00 | 0.00 | 75 | 1010.9 |
| 20260902005536 | 87 | 175 | 4.0 | 5.0 | 0.00 | 0.00 | 0.00 | 75 | 1010.4 |
| 20260902005033 | 87 | 179 | 2.0 | 3.0 | 0.00 | 0.00 | 0.00 | 74 | 1010.4 |
| 20260902004532 | 87 | 175 | 3.0 | 5.0 | 0.00 | 0.00 | 0.00 | 75 | 1010.3 |
| 20260902004028 | 87 | 214 | 4.0 | 5.0 | 0.00 | 0.00 | 0.00 | 75 | 1010.4 |
| 20260902003523 | 87 | 196 | 2.0 | 3.0 | 0.00 | 0.00 | 0.00 | 75 | 1010.5 |
| 20260902003018 | 87 | 207 | 2.0 | 2.0 | 0.00 | 0.00 | 0.00 | 75 | 1010.4 |
| 20260902002514 | 87 | 153 | 1.0 | 3.0 | 0.00 | 0.00 | 0.00 | 75 | 1010.5 |
| 20260902002009 | 87 | 216 | 3.0 | 3.0 | 0.00 | 0.00 | 0.00 | 74 | 1010.4 |
| 20260902001503 | 88 | 137 | 1.0 | 3.0 | 0.00 | 0.00 | 0.00 | 74 | 1010.4 |
| 20260902000958 | 88 | 41 | 1.0 | 2.0 | 0.00 | 0.00 | 0.00 | 74 | 1010.4 |
| 20260902000453 | 89 | 287 | 2.0 | 3.0 | 0.00 | 0.00 | 0.00 | 73 | 1010.3 |
| 20260901235948 | 89 | 199 | 2.0 | 5.0 | 0.00 | 0.00 | 0.00 | 72 | 1010.5 |
| 20260901235443 | 89 | 250 | 2.0 | 3.0 | 0.00 | 0.00 | 0.00 | 73 | 1010.4 |
| 20260901234938 | 89 | 251 | 1.0 | 2.0 | 0.00 | 0.00 | 0.00 | 73 | 1010.6 |
| 20260901234432 | 89 | 218 | 3.0 | 5.0 | 0.00 | 0.00 | 0.00 | 72 | 1010.4 |
| 20260901233926 | 89 | 216 | 1.0 | 3.0 | 0.00 | 0.00 | 0.00 | 72 | 1010.5 |
| 20260901233422 | 90 | 258 | 1.0 | 5.0 | 0.00 | 0.00 | 0.00 | 72 | 1010.5 |
| 20260901232918 | 90 | 236 | 3.0 | 6.0 | 0.00 | 0.00 | 0.00 | 71 | 1010.5 |
| 20260901232413 | 90 | 121 | 1.0 | 3.0 | 0.00 | 0.00 | 0.00 | 71 | 1010.5 |
| 20260901231908 | 90 | 133 | 3.0 | 5.0 | 0.00 | 0.00 | 0.00 | 72 | 1010.8 |
| 20260901231404 | 90 | 120 | 2.0 | 5.0 | 0.00 | 0.00 | 0.00 | 72 | 1010.7 |
| 20260901230901 | 90 | 288 | 2.0 | 2.0 | 0.00 | 0.00 | 0.00 | 72 | 1010.6 |
| 20260901230400 | 91 | 200 | 1.0 | 2.0 | 0.00 | 0.00 | 0.00 | 71 | 1010.7 |
| 20260901225855 | 90 | 250 | 2.0 | 3.0 | 0.00 | 0.00 | 0.00 | 70 | 1010.7 |
| 20260901225355 | 90 | 230 | 3.0 | 5.0 | 0.00 | 0.00 | 0.00 | 71 | 1010.8 |
| 20260901224850 | 90 | 277 | 3.0 | 5.0 | 0.00 | 0.00 | 0.00 | 72 | 1010.6 |
| 20260901224346 | 91 | 145 | 2.0 | 2.0 | 0.00 | 0.00 | 0.00 | 72 | 1010.7 |
| 20260901223842 | 91 | 147 | 1.0 | 2.0 | 0.00 | 0.00 | 0.00 | 72 | 1010.9 |
| 20260901223338 | 91 | 118 | 1.0 | 2.0 | 0.00 | 0.00 | 0.00 | 71 | 1010.9 |
| 20260901222833 | 91 | 101 | 1.0 | 2.0 | 0.00 | 0.00 | 0.00 | 71 | 1010.9 |
| 20260901222330 | 91 | 112 | 1.0 | 3.0 | 0.00 | 0.00 | 0.00 | 70 | 1010.7 |
| 20260901221825 | 90 | 229 | 2.0 | 3.0 | 0.00 | 0.00 | 0.00 | 71 | 1010.8 |
| 20260901221320 | 91 | 256 | 2.0 | 5.0 | 0.00 | 0.00 | 0.00 | 70 | 1011.0 |
| 20260901220820 | 91 | 199 | 3.0 | 3.0 | 0.00 | 0.00 | 0.00 | 70 | 1010.8 |
| 20260901220319 | 91 | 211 | 2.0 | 6.0 | 0.00 | 0.00 | 0.00 | 70 | 1010.9 |
| 20260901215818 | 92 | 167 | 3.0 | 3.0 | 0.00 | 0.00 | 0.00 | 69 | 1010.9 |
| 20260901215317 | 92 | 191 | 2.0 | 3.0 | 0.00 | 0.00 | 0.00 | 66 | 1010.6 |
| 20260901214816 | 92 | 167 | 2.0 | 3.0 | 0.00 | 0.00 | 0.00 | 68 | 1010.5 |
| 20260901214315 | 92 | 207 | 1.0 | 2.0 | 0.00 | 0.00 | 0.00 | 68 | 1010.6 |
| 20260901213810 | 92 | 213 | 1.0 | 2.0 | 0.00 | 0.00 | 0.00 | 66 | 1010.7 |
| 20260901213309 | 93 | 189 | 1.0 | 5.0 | 0.00 | 0.00 | 0.00 | 65 | 1010.6 |
| 20260901212804 | 93 | 109 | 1.0 | 5.0 | 0.00 | 0.00 | 0.00 | 66 | 1010.7 |
| 20260901212300 | 94 | 143 | 1.0 | 5.0 | 0.00 | 0.00 | 0.00 | 67 | 1010.6 |
| 20260901211755 | 94 | 234 | 3.0 | 5.0 | 0.00 | 0.00 | 0.00 | 64 | 1010.6 |
| 20260901211251 | 94 | 94 | 1.0 | 2.0 | 0.00 | 0.00 | 0.00 | 66 | 1010.7 |
| 20260901210747 | 93 | 288 | 2.0 | 6.0 | 0.00 | 0.00 | 0.00 | 62 | 1010.9 |
| 20260901210243 | 94 | 150 | 1.0 | 5.0 | 0.00 | 0.00 | 0.00 | 67 | 1010.9 |
| 20260901205739 | 94 | 248 | 2.0 | 3.0 | 0.00 | 0.00 | 0.00 | 67 | 1010.9 |
| 20260901205238 | 93 | 245 | 1.0 | 2.0 | 0.00 | 0.00 | 0.00 | 67 | 1011.0 |
| 20260901204734 | 93 | 220 | 2.0 | 3.0 | 0.00 | 0.00 | 0.00 | 67 | 1010.7 |
| 20260901204230 | 93 | 113 | 1.0 | 1.0 | 0.00 | 0.00 | 0.00 | 69 | 1010.9 |
| 20260901203725 | 93 | 212 | 1.0 | 3.0 | 0.00 | 0.00 | 0.00 | 67 | 1010.8 |
| 20260901203225 | 93 | 310 | 1.0 | 2.0 | 0.00 | 0.00 | 0.00 | 68 | 1011.0 |
| 20260901202724 | 94 | 105 | 1.0 | 5.0 | 0.00 | 0.00 | 0.00 | 67 | 1010.9 |
| 20260901202220 | 94 | 225 | 3.0 | 5.0 | 0.00 | 0.00 | 0.00 | 66 | 1010.9 |
| 20260901201716 | 94 | 212 | 1.0 | 3.0 | 0.00 | 0.00 | 0.00 | 65 | 1010.8 |
| 20260901201215 | 94 | 250 | 2.0 | 3.0 | 0.00 | 0.00 | 0.00 | 67 | 1011.0 |
| 20260901200715 | 94 | 233 | 1.0 | 5.0 | 0.00 | 0.00 | 0.00 | 66 | 1011.1 |
| 20260901200210 | 93 | 226 | 3.0 | 6.0 | 0.00 | 0.00 | 0.00 | 66 | 1011.1 |
| 20260901195708 | 94 | 180 | 3.0 | 3.0 | 0.00 | 0.00 | 0.00 | 67 | 1011.1 |
| 20260901195202 | 95 | 92 | 2.0 | 6.0 | 0.00 | 0.00 | 0.00 | 66 | 1011.0 |
| 20260901194658 | 95 | 225 | 1.0 | 2.0 | 0.00 | 0.00 | 0.00 | 66 | 1010.9 |
| 20260901194153 | 95 | 243 | 1.0 | 5.0 | 0.00 | 0.00 | 0.00 | 67 | 1011.1 |
| 20260901193648 | 95 | 76 | 2.0 | 5.0 | 0.00 | 0.00 | 0.00 | 65 | 1011.2 |
| 20260901193142 | 95 | 168 | 3.0 | 6.0 | 0.00 | 0.00 | 0.00 | 67 | 1011.2 |
| 20260901192637 | 95 | 242 | 2.0 | 5.0 | 0.00 | 0.00 | 0.00 | 66 | 1011.2 |
| 20260901192132 | 95 | 245 | 2.0 | 5.0 | 0.00 | 0.00 | 0.00 | 64 | 1011.3 |
| 20260901191628 | 95 | 90 | 1.0 | 2.0 | 0.00 | 0.00 | 0.00 | 64 | 1011.2 |
| 20260901191125 | 95 | 206 | 2.0 | 6.0 | 0.00 | 0.00 | 0.00 | 64 | 1011.3 |
| 20260901190620 | 95 | 269 | 1.0 | 7.0 | 0.00 | 0.00 | 0.00 | 65 | 1011.1 |
| 20260901190119 | 95 | 177 | 2.0 | 3.0 | 0.00 | 0.00 | 0.00 | 69 | 1011.4 |
| 20260901185618 | 94 | 270 | 1.0 | 3.0 | 0.00 | 0.00 | 0.00 | 70 | 1011.3 |
| 20260901185116 | 94 | 231 | 0.0 | 2.0 | 0.00 | 0.00 | 0.00 | 70 | 1011.4 |
| 20260901184612 | 93 | 174 | 3.0 | 6.0 | 0.00 | 0.00 | 0.00 | 68 | 1011.5 |
| 20260901184108 | 94 | 165 | 1.0 | 5.0 | 0.00 | 0.00 | 0.00 | 71 | 1011.6 |
| 20260901183602 | 93 | 159 | 2.0 | 5.0 | 0.00 | 0.00 | 0.00 | 70 | 1011.5 |
| 20260901183057 | 93 | 161 | 1.0 | 8.0 | 0.00 | 0.00 | 0.00 | 69 | 1011.5 |
| 20260901182553 | 93 | 173 | 3.0 | 7.0 | 0.00 | 0.00 | 0.00 | 68 | 1011.4 |
| 20260901182048 | 93 | 22 | 4.0 | 6.0 | 0.00 | 0.00 | 0.00 | 68 | 1011.6 |
| 20260901181547 | 93 | 102 | 0.0 | 5.0 | 0.00 | 0.00 | 0.00 | 69 | 1011.7 |
| 20260901181047 | 93 | 100 | 1.0 | 5.0 | 0.00 | 0.00 | 0.00 | 69 | 1011.7 |
| 20260901180545 | 93 | 99 | 3.0 | 5.0 | 0.00 | 0.00 | 0.00 | 69 | 1011.6 |
| 20260901180040 | 93 | 100 | 1.0 | 2.0 | 0.00 | 0.00 | 0.00 | 68 | 1011.7 |
| 20260901175534 | 93 | 95 | 2.0 | 5.0 | 0.00 | 0.00 | 0.00 | 70 | 1011.7 |
| 20260901175028 | 93 | 104 | 1.0 | 5.0 | 0.00 | 0.00 | 0.00 | 69 | 1011.7 |
| 20260901174524 | 93 | 108 | 1.0 | 3.0 | 0.00 | 0.00 | 0.00 | 70 | 1011.5 |
| 20260901174020 | 92 | 103 | 1.0 | 5.0 | 0.00 | 0.00 | 0.00 | 70 | 1011.6 |
| 20260901173515 | 93 | 100 | 0.0 | 3.0 | 0.00 | 0.00 | 0.00 | 71 | 1011.6 |
| 20260901173011 | 92 | 93 | 2.0 | 5.0 | 0.00 | 0.00 | 0.00 | 71 | 1011.8 |
| 20260901172506 | 92 | 101 | 2.0 | 3.0 | 0.00 | 0.00 | 0.00 | 71 | 1011.6 |
| 20260901172004 | 92 | 114 | 3.0 | 5.0 | 0.00 | 0.00 | 0.00 | 73 | 1011.7 |
| 20260901171503 | 91 | 103 | 2.0 | 5.0 | 0.00 | 0.00 | 0.00 | 73 | 1011.7 |
| 20260901171002 | 91 | 128 | 2.0 | 6.0 | 0.00 | 0.00 | 0.00 | 71 | 1011.9 |
| 20260901170456 | 91 | 117 | 3.0 | 3.0 | 0.00 | 0.00 | 0.00 | 71 | 1011.9 |
| 20260901165955 | 91 | 167 | 3.0 | 3.0 | 0.00 | 0.00 | 0.00 | 72 | 1012.1 |
| 20260901165451 | 91 | 112 | 3.0 | 5.0 | 0.00 | 0.00 | 0.00 | 72 | 1012.1 |
| 20260901164947 | 91 | 100 | 1.0 | 3.0 | 0.00 | 0.00 | 0.00 | 74 | 1012.2 |
| 20260901164442 | 91 | 104 | 1.0 | 2.0 | 0.00 | 0.00 | 0.00 | 75 | 1012.1 |
| 20260901163937 | 90 | 102 | 1.0 | 1.0 | 0.00 | 0.00 | 0.00 | 74 | 1012.1 |
| 20260901163432 | 90 | 110 | 3.0 | 6.0 | 0.00 | 0.00 | 0.00 | 74 | 1012.1 |
| 20260901162930 | 90 | 94 | 4.0 | 5.0 | 0.00 | 0.00 | 0.00 | 73 | 1012.3 |
| 20260901162426 | 90 | 128 | 2.0 | 2.0 | 0.00 | 0.00 | 0.00 | 74 | 1012.1 |
| 20260901161920 | 89 | 103 | 3.0 | 3.0 | 0.00 | 0.00 | 0.00 | 75 | 1012.2 |
| 20260901161419 | 88 | 113 | 2.0 | 5.0 | 0.00 | 0.00 | 0.00 | 76 | 1012.3 |
| 20260901160914 | 88 | 125 | 3.0 | 6.0 | 0.00 | 0.00 | 0.00 | 75 | 1012.3 |
| 20260901160410 | 88 | 108 | 2.0 | 5.0 | 0.00 | 0.00 | 0.00 | 76 | 1012.2 |
| 20260901155909 | 88 | 105 | 3.0 | 5.0 | 0.00 | 0.00 | 0.00 | 76 | 1012.1 |
| 20260901155404 | 88 | 107 | 2.0 | 3.0 | 0.00 | 0.00 | 0.00 | 76 | 1012.3 |
| 20260901154901 | 87 | 110 | 3.0 | 3.0 | 0.00 | 0.00 | 0.00 | 76 | 1011.9 |
| 20260901154400 | 87 | 117 | 1.0 | 5.0 | 0.00 | 0.00 | 0.00 | 78 | 1011.8 |
| 20260901153855 | 87 | 170 | 3.0 | 5.0 | 0.00 | 0.00 | 0.00 | 77 | 1012.3 |
| 20260901153354 | 86 | 108 | 1.0 | 3.0 | 0.00 | 0.00 | 0.00 | 80 | 1012.1 |
| 20260901152854 | 86 | 110 | 1.0 | 2.0 | 0.00 | 0.00 | 0.00 | 78 | 1012.1 |
| 20260901152349 | 86 | 119 | 2.0 | 5.0 | 0.00 | 0.00 | 0.00 | 78 | 1012.3 |
| 20260901151843 | 86 | 110 | 0.0 | 1.0 | 0.00 | 0.00 | 0.00 | 79 | 1012.2 |
| 20260901151338 | 86 | 104 | 1.0 | 1.0 | 0.00 | 0.00 | 0.00 | 79 | 1011.9 |
| 20260901150837 | 85 | 112 | 1.0 | 3.0 | 0.00 | 0.00 | 0.00 | 80 | 1012.1 |
| 20260901150335 | 85 | 141 | 3.0 | 3.0 | 0.00 | 0.00 | 0.00 | 79 | 1012.1 |
| 20260901145833 | 85 | 105 | 1.0 | 1.0 | 0.00 | 0.00 | 0.00 | 80 | 1012.2 |
| 20260901145327 | 84 | 107 | 1.0 | 3.0 | 0.00 | 0.00 | 0.00 | 80 | 1011.9 |
| 20260901144822 | 84 | 111 | 1.0 | 3.0 | 0.00 | 0.00 | 0.00 | 80 | 1012.3 |
| 20260901144318 | 84 | 105 | 1.0 | 3.0 | 0.00 | 0.00 | 0.00 | 82 | 1012.1 |
| 20260901143814 | 84 | 106 | 1.0 | 2.0 | 0.00 | 0.00 | 0.00 | 81 | 1012.1 |
| 20260901143310 | 83 | 104 | 2.0 | 5.0 | 0.00 | 0.00 | 0.00 | 81 | 1012.1 |
| 20260901142806 | 83 | 101 | 3.0 | 5.0 | 0.00 | 0.00 | 0.00 | 82 | 1012.1 |
| 20260901142306 | 83 | 119 | 1.0 | 3.0 | 0.00 | 0.00 | 0.00 | 82 | 1012.2 |
| 20260901141800 | 82 | 120 | 1.0 | 3.0 | 0.00 | 0.00 | 0.00 | 82 | 1012.2 |
| 20260901141255 | 82 | 110 | 2.0 | 3.0 | 0.00 | 0.00 | 0.00 | 83 | 1012.1 |
| 20260901140754 | 82 | 103 | 3.0 | 3.0 | 0.00 | 0.00 | 0.00 | 83 | 1011.9 |
| 20260901140252 | 81 | 97 | 2.0 | 2.0 | 0.00 | 0.00 | 0.00 | 84 | 1011.9 |
| 20260901135748 | 81 | 105 | 2.0 | 5.0 | 0.00 | 0.00 | 0.00 | 85 | 1011.6 |
| 20260901135247 | 80 | 101 | 3.0 | 3.0 | 0.00 | 0.00 | 0.00 | 86 | 1012.1 |
| 20260901134744 | 80 | 107 | 0.0 | 1.0 | 0.00 | 0.00 | 0.00 | 87 | 1012.2 |
| 20260901134243 | 79 | 106 | 2.0 | 6.0 | 0.00 | 0.00 | 0.00 | 88 | 1012.1 |
| 20260901133742 | 79 | 108 | 1.0 | 2.0 | 0.00 | 0.00 | 0.00 | 89 | 1012.2 |
| 20260901133237 | 79 | 108 | 2.0 | 2.0 | 0.00 | 0.00 | 0.00 | 88 | 1012.2 |
| 20260901132735 | 78 | 114 | 1.0 | 3.0 | 0.00 | 0.00 | 0.00 | 88 | 1012.3 |
| 20260901132230 | 78 | 117 | 2.0 | 2.0 | 0.00 | 0.00 | 0.00 | 89 | 1012.1 |
| 20260901131725 | 78 | 112 | 0.0 | 1.0 | 0.00 | 0.00 | 0.00 | 90 | 1012.2 |
| 20260901131224 | 78 | 109 | 0.0 | 2.0 | 0.00 | 0.00 | 0.00 | 90 | 1012.2 |
| 20260901130720 | 77 | 109 | 0.0 | 1.0 | 0.00 | 0.00 | 0.00 | 91 | 1012.3 |